Simultaneous Nadir Overpasses (SNOs) Predictions

Prediction of SNOs between GOES-15 and METOP-A Satellite Orbit:

Table of predicted SNOs for the next 14.0 days since TLE Epoch: 11/23/2018
Index Date Time (GOES-15) GOES-15 Lat,Lon METOP-A Lat,Lon Distance(km) Time Diff (sec)
1 11/25/2018 17:49:06 -0.24,-128.37 -0.27,-128.19 20.93 80
2 11/28/2018 05:44:41 0.23,-128.39 0.35,-127.79 68.44 80
3 11/29/2018 18:03:29 -0.22,-128.44 0.63,-132.36 445.50 80
4 11/30/2018 17:45:26 -0.22,-128.46 -0.45,-127.35 126.22 80
5 12/02/2018 06:04:24 0.21,-128.47 -0.55,-131.96 396.49 80
6 12/03/2018 05:41:01 0.22,-128.49 0.53,-126.95 173.96 80
7 12/04/2018 17:59:50 -0.21,-128.52 0.45,-131.52 341.39 80
8 12/05/2018 17:41:47 -0.21,-128.54 -0.63,-126.52 229.95 80
9 12/07/2018 06:00:44 0.20,-128.56 -0.36,-131.12 292.45 80




NCC Satellite Simultaneous Nadir Overpasses (SNOs) Prediction Service
